(394682) = 2008 CD126 = 2013 AJ41

Discovered at Kitt Peak on 2008-02-08 by Spacewatch.

Orbit

Orbit type: Main Belt

Note: WebGL enabled browser required.

epoch2024-03-31.0
epoch JD2460400.5
perihelion date2020-04-20.52164
perihelion JD2458960.02164
argument of perihelion (°)331.97112
ascending node (°)293.39700
inclination (°)3.71937
eccentricity0.0756418
perihelion distance (AU)2.7901851
Tisserand w.r.t. Jupiter3.2
ΔV w.r.t. Earth (km/sec)10.5
semimajor axis (AU)3.0185106
mean anomaly (°)270.72073
mean daily motion (°/day)0.18793810
aphelion distance (AU)3.247
period (years)5.24
P-vector [x]-0.07984507
P-vector [y]-0.90199949
P-vector [z]-0.42428963
Q-vector [x]0.99502777
Q-vector [y]-0.09754440
Q-vector [z]0.02012054
absolute magnitude16.68
phase slope0.15
uncertainty0
referenceMPEC 2024-E73
observations used200
oppositions12
arc length (days)6315
first opposition used2006
last opposition used2024
residual rms (arc-secs)0.76
perturbers coarse indicatorM-v
perturbers precise indicator003Ek
first observation date used2006-11-20.0
last observation date used2024-03-05.0
computer nameMPCLINUX
Minimum Orbit Intersection Distances (in AU)
for orbit epoch: 2460400.5, reference: E2024-G04
Mercury2.32446
Venus2.06364
Earth1.77483
Mars1.27907
Jupiter1.81842
Saturn5.80103
Uranus15.3616
Neptune26.6516

Observations

198 total observations over interval: 2006 11 20.27654 – 2024 03 05.280893
These data are available for download (format description).

Date (UT) J2000 RA J2000 Dec Magn Location Ref
2006 11 20.27654 04 45 51.40 +26 09 57.0 21.6 V 691 – Steward Observatory, Kitt Peak-Spacewatch MPS 449645
2006 11 20.31356 04 45 49.46 +26 09 53.3 21.6 V 691 – Steward Observatory, Kitt Peak-Spacewatch MPS 449645
2006 11 20.33088 04 45 48.53 +26 09 50.9 21.1 V 691 – Steward Observatory, Kitt Peak-Spacewatch MPS 449645
2008 02 08.18508 09 45 08.08 +10 45 35.7 21.0 V 691 – Steward Observatory, Kitt Peak-Spacewatch MPS 239190
2008 02 08.20271 09 45 07.19 +10 45 39.3 21.1 V 691 – Steward Observatory, Kitt Peak-Spacewatch MPS 239190
2008 02 08.21797 09 45 06.44 +10 45 42.3 21.2 V 691 – Steward Observatory, Kitt Peak-Spacewatch MPS 239190
2008 02 12.18561 09 41 49.20 +10 58 33.0 20.4 V 691 – Steward Observatory, Kitt Peak-Spacewatch MPS 239190
2008 02 12.20328 09 41 48.29 +10 58 37.2 21.0 V 691 – Steward Observatory, Kitt Peak-Spacewatch MPS 239190
2008 02 12.21844 09 41 47.48 +10 58 39.8 20.7 V 691 – Steward Observatory, Kitt Peak-Spacewatch MPS 239190
2008 02 27.17768 09 29 40.39 +11 47 37.9 21.8 V 691 – Steward Observatory, Kitt Peak-Spacewatch MPS 240886
2008 02 27.19649 09 29 39.50 +11 47 41.8 21.1 V 691 – Steward Observatory, Kitt Peak-Spacewatch MPS 240886
2008 02 27.21532 09 29 38.63 +11 47 45.4 21.2 V 691 – Steward Observatory, Kitt Peak-Spacewatch MPS 240886
2008 03 01.17467 09 27 27.64 +11 56 48.6 21.1 V 691 – Steward Observatory, Kitt Peak-Spacewatch MPS 240886
2008 03 01.19331 09 27 26.77 +11 56 52.0 21.3 V 691 – Steward Observatory, Kitt Peak-Spacewatch MPS 240886
2008 03 01.21174 09 27 25.95 +11 56 55.1 21.0 V 691 – Steward Observatory, Kitt Peak-Spacewatch MPS 240886
2008 03 08.17370 09 22 47.41 +12 16 26.4   691 – Steward Observatory, Kitt Peak-Spacewatch MPS 242274
2008 03 08.18701 09 22 46.89 +12 16 28.0   691 – Steward Observatory, Kitt Peak-Spacewatch MPS 242274
2008 03 08.19776 09 22 46.50 +12 16 29.6   691 – Steward Observatory, Kitt Peak-Spacewatch MPS 242274
2011 11 18.37662 03 11 19.21 +22 40 58.9 20.9 V G96 – Mt. Lemmon Survey MPS 449645
2011 11 18.37939 03 11 19.10 +22 40 58.0 20.6 V G96 – Mt. Lemmon Survey MPS 449645
2011 11 18.38214 03 11 18.96 +22 40 57.5 20.6 V G96 – Mt. Lemmon Survey MPS 449645
2011 11 18.38493 03 11 18.78 +22 40 55.9 20.4 V G96 – Mt. Lemmon Survey MPS 449645
2011 11 18.38770 03 11 18.63 +22 40 56.2 20.4 V G96 – Mt. Lemmon Survey MPS 449645
2011 11 30.21068 03 01 47.67 +21 52 48.7 20.9 V G96 – Mt. Lemmon Survey MPS 449645
2011 11 30.21707 03 01 47.35 +21 52 47.3 20.8 V G96 – Mt. Lemmon Survey MPS 449645
2011 11 30.22360 03 01 47.06 +21 52 46.2 20.5 V G96 – Mt. Lemmon Survey MPS 449645
2011 11 30.22993 03 01 46.77 +21 52 44.6 20.7 V G96 – Mt. Lemmon Survey MPS 449645
2013 01 05.37395 08 39 06.80 +17 44 23.6 21.9 V G96 – Mt. Lemmon Survey MPS 449802
2013 01 05.38003 08 39 06.48 +17 44 24.3 21.6 V G96 – Mt. Lemmon Survey MPS 449802
2013 01 05.38530 08 39 06.33 +17 44 24.6 22.2 V G96 – Mt. Lemmon Survey MPS 449802
2013 01 05.39060 08 39 06.12 +17 44 24.2 22.1 V G96 – Mt. Lemmon Survey MPS 449802
2013 01 09.23534 08 36 12.89 +17 51 10.6 21.4 V 691 – Steward Observatory, Kitt Peak-Spacewatch MPS 449802
2013 01 09.25303 08 36 12.07 +17 51 13.0 21.2 V 691 – Steward Observatory, Kitt Peak-Spacewatch MPS 449802
2013 01 09.27072 08 36 11.19 +17 51 14.5 21.6 V 691 – Steward Observatory, Kitt Peak-Spacewatch MPS 449802
2013 01 10.53239 08 35 11.432 +17 53 36.43 21.1 w F51 – Pan-STARRS 1, Haleakala MPS 449645
2013 01 10.54624 08 35 10.751 +17 53 37.93 21.3 w F51 – Pan-STARRS 1, Haleakala MPS 449645
2013 01 10.56011 08 35 10.059 +17 53 39.67 21.1 w F51 – Pan-STARRS 1, Haleakala MPS 449645
2013 01 10.57396 08 35 09.394 +17 53 41.22 21.3 w F51 – Pan-STARRS 1, Haleakala MPS 449645
2013 01 18.31472 08 28 41.98 +18 09 00.7 20.9 V G96 – Mt. Lemmon Survey MPS 450980
2013 01 18.32117 08 28 41.66 +18 09 02.1 21.0 V G96 – Mt. Lemmon Survey MPS 450980
2013 01 18.32765 08 28 41.34 +18 09 02.8 21.1 V G96 – Mt. Lemmon Survey MPS 450980
2013 01 18.33413 08 28 40.98 +18 09 03.3 21.4 V G96 – Mt. Lemmon Survey MPS 450980
2013 02 06.21056 08 12 22.53 +18 46 15.6 20.9 V G96 – Mt. Lemmon Survey MPS 453751
2013 02 06.21900 08 12 22.14 +18 46 16.1 20.8 V G96 – Mt. Lemmon Survey MPS 453751
2013 02 06.22423 08 12 21.88 +18 46 16.6 21.8 V G96 – Mt. Lemmon Survey MPS 453751
2013 02 06.22942 08 12 21.60 +18 46 17.3 21.0 V G96 – Mt. Lemmon Survey MPS 453751
2013 02 10.41914 08 09 04.080 +18 53 16.07 21.3 w F51 – Pan-STARRS 1, Haleakala MPS 453751
2013 02 10.43460 08 09 03.365 +18 53 17.64 21.5 w F51 – Pan-STARRS 1, Haleakala MPS 453751
2013 02 10.45010 08 09 02.626 +18 53 19.07 21.2 w F51 – Pan-STARRS 1, Haleakala MPS 453751
2013 02 10.46556 08 09 01.898 +18 53 20.39 21.5 w F51 – Pan-STARRS 1, Haleakala MPS 453751
2014 04 10.39824 13 31 31.452 -15 39 11.43 20.3 i F51 – Pan-STARRS 1, Haleakala MPS 509802
2014 04 10.41018 13 31 30.870 -15 39 08.70 20.4 i F51 – Pan-STARRS 1, Haleakala MPS 509802
2014 04 10.42209 13 31 30.283 -15 39 05.73 20.3 i F51 – Pan-STARRS 1, Haleakala MPS 509802
2014 04 10.43400 13 31 29.707 -15 39 02.49 20.4 i F51 – Pan-STARRS 1, Haleakala MPS 509802
2014 04 23.98767 13 20 48.84 -14 36 41.9 20.7   W84 – Cerro Tololo-DECam MPS 790366
2014 04 23.99091 13 20 48.70 -14 36 41.0   W84 – Cerro Tololo-DECam MPS 790366
2014 04 23.99411 13 20 48.55 -14 36 40.1   W84 – Cerro Tololo-DECam MPS 790366
2014 04 23.99726 13 20 48.40 -14 36 39.2   W84 – Cerro Tololo-DECam MPS 790366
2014 04 24.00050 13 20 48.25 -14 36 38.2   W84 – Cerro Tololo-DECam MPS 790366
2015 06 26.50015 20 55 53.677 -16 47 02.72 21.2 w F51 – Pan-STARRS 1, Haleakala MPS 614594
2015 06 26.51204 20 55 53.360 -16 47 02.89 21.1 w F51 – Pan-STARRS 1, Haleakala MPS 614594
2015 06 26.52394 20 55 53.054 -16 47 03.20 21.1 w F51 – Pan-STARRS 1, Haleakala MPS 614594
2015 06 26.53584 20 55 52.737 -16 47 03.22 21.3 w F51 – Pan-STARRS 1, Haleakala MPS 614594
2015 06 26.54579 20 55 52.478 -16 47 03.62 21.1 w F51 – Pan-STARRS 1, Haleakala MPS 614594
2015 06 26.55678 20 55 52.183 -16 47 03.82 21.2 w F51 – Pan-STARRS 1, Haleakala MPS 614594
2015 06 26.56777 20 55 51.896 -16 47 03.81 20.9 w F51 – Pan-STARRS 1, Haleakala MPS 614594
2015 07 09.45124 20 48 51.007 -16 57 17.85 20.8 i F51 – Pan-STARRS 1, Haleakala MPS 615108
2015 07 09.47455 20 48 50.041 -16 57 19.91 20.4 i F51 – Pan-STARRS 1, Haleakala MPS 615108
2015 07 09.48602 20 48 49.546 -16 57 20.80 20.6 i F51 – Pan-STARRS 1, Haleakala MPS 615108
2015 07 14.43946 20 45 19.239 -17 04 06.44 20.8 w F51 – Pan-STARRS 1, Haleakala MPS 615891
2015 07 14.45044 20 45 18.703 -17 04 07.43 20.7 w F51 – Pan-STARRS 1, Haleakala MPS 615891
2015 08 11.32615 20 22 34.965 -17 51 29.71 20.7 w F51 – Pan-STARRS 1, Haleakala MPS 621096
2015 08 11.33714 20 22 34.443 -17 51 30.77 20.7 w F51 – Pan-STARRS 1, Haleakala MPS 621096
2015 08 11.34812 20 22 33.919 -17 51 31.71 20.7 w F51 – Pan-STARRS 1, Haleakala MPS 621096
2015 08 11.35911 20 22 33.388 -17 51 32.72 20.7 w F51 – Pan-STARRS 1, Haleakala MPS 621096
2015 08 12.41720 20 21 44.953 -17 53 09.55 20.7 w F51 – Pan-STARRS 1, Haleakala MPS 621096
2015 08 12.42824 20 21 44.435 -17 53 10.53 20.6 w F51 – Pan-STARRS 1, Haleakala MPS 621096
2015 08 12.43926 20 21 43.919 -17 53 11.53 20.8 w F51 – Pan-STARRS 1, Haleakala MPS 621096
2015 09 05.31312 20 08 52.559 -18 15 26.47 21.2 w F51 – Pan-STARRS 1, Haleakala MPS 626671
2015 09 05.32417 20 08 52.352 -18 15 26.54 21.2 w F51 – Pan-STARRS 1, Haleakala MPS 626671
2015 09 05.33518 20 08 52.152 -18 15 26.90 21.2 w F51 – Pan-STARRS 1, Haleakala MPS 626671
2015 09 06.28611 20 08 37.045 -18 15 40.74 21.4 w F51 – Pan-STARRS 1, Haleakala MPS 626671
2015 09 06.29710 20 08 36.835 -18 15 40.75 21.3 w F51 – Pan-STARRS 1, Haleakala MPS 626671
2015 09 06.30834 20 08 36.659 -18 15 40.86 21.1 w F51 – Pan-STARRS 1, Haleakala MPS 626671
2015 10 03.22107 20 10 39.643 -17 59 05.81 21.8 w F51 – Pan-STARRS 1, Haleakala MPS 631132
2015 10 03.23207 20 10 39.872 -17 59 04.89 21.6 w F51 – Pan-STARRS 1, Haleakala MPS 631132
2015 10 03.24307 20 10 40.152 -17 59 03.95 21.8 w F51 – Pan-STARRS 1, Haleakala MPS 631132
2015 10 03.25406 20 10 40.374 -17 59 02.67 21.5 w F51 – Pan-STARRS 1, Haleakala MPS 631132
2016 10 10.33541 02 11 40.13 +18 53 51.5 21.5 V G96 – Mt. Lemmon Survey MPS 736118
2016 10 10.34075 02 11 39.83 +18 53 50.8 20.8 V G96 – Mt. Lemmon Survey MPS 736118
2016 10 10.34513 02 11 39.65 +18 53 49.3 21.4 V G96 – Mt. Lemmon Survey MPS 736118
2016 10 10.34947 02 11 39.48 +18 53 48.3 20.9 V G96 – Mt. Lemmon Survey MPS 736118
